sat.trackr.live / text

‹ back to catalog

STARLINK-11529 [DTC]

NORAD 62599 · 2025-008N

PAYLOAD ACTIVE UNKNOWN

§ Identity

Operator
Country
US
Launch date
2025-01-13
Launch site
AFETR
Launch vehicle
Mass (kg)
RCS (m²)

Purposes: comms

External: N2YO · Heavens-Above · Gunter

§ Orbital elements

Epoch: 2026-09-21T06:23:59.618400Z

Period
91.66 min
Inclination
43.0002°
Eccentricity
0.0002624
Mean motion
15.70969625 rev/d
Perigee alt
354.4 km
Apogee alt
357.9 km
Semi-major
6,734.3 km
B*
1.6428e-3
RAAN
27.2684°
Arg perigee
290.2403°
Mean anomaly
69.8182°
Rev number
9,805

§ Raw data

STARLINK-11529 [DTC]1 62599U 25008N   26264.26666225  .00217137  00000+0  16428-2 0  99942 62599  43.0002  27.2684 0002624 290.2403  69.8182 15.70969625 98051

JSON: /api/v1/satellites/62599 · /tle

For live sub-satellite position, see the globe view (requires WebGL).

§ Visibility from observer

Set your observer location to see the next 7 days of passes ≥ 10°. The values pass through the URL so the page stays shareable.

No JS? Fill the form by hand. The geolocation button needs JavaScript.